Location: La Trinit�
(48.1620°N, 3.4512°W)
Time: 17:55:41
(UTC+00:00)

Cosmos 1782 - Pass Details

Date: 08 May 2021
Orbit: 537 x 550 km, 82.5° (Epoch: 21 June)

Event Time Altitude Azimuth Distance (km) Brightness Sun altitude
Exits shadow 20:44:20 12° 151° (SSE) 1,671 4.7 -10.1°
Maximum altitude 20:47:29 32° 91° (E) 965 3.7 -10.5°
Drops below altitude 10° 20:51:04 10° 28° (NNE) 1,827 5.7 -10.9°
Sets 20:53:23 0° 19° (NNE) 2,723 6.7 -11.2°
